Wind_Speed
39 37 36 35 35 35 36 37 39 41 42 43 44 45 46 46 45 45 45 46 46 47 48 48 48 48 48 47 47 46 46 45 45 45 45 44 44 43 43 43 42 42 42 41 41 41 42 42 42 43 43 43 44 44 44 45 45 46 46 46 46 46 46 46 46 46 46 46 47 47 47 47 47 47 47 47 46 46 45 44 43 42 42 41 40 39
38 37 36 35 36 37 38 39 41 42 44 45 46 47 47 46 46 46 45 46 46 47 47 48 48 47 46 46 45 45 45 44 44 44 43 43 42 42 41 41 41 40 40 40 40 41 41 41 42 42 42 43 43 44 44 44 45 45 45 45 45 45 45 45 45 45 46 46 46 47 47 47 47 47 46 46 46 45 45 44 43 43 42 41 40 39
37 36 36 36 37 38 39 41 43 44 46 47 48 48 48 47 47 46 46 46 47 47 47 47 47 46 46 45 44 44 43 43 43 42 42 41 41 40 40 39 39 39 39 39 39 40 40 41 41 42 42 42 42 43 43 43 43 44 44 43 43 43 43 44 44 45 45 45 46 46 45 45 45 45 44 44 44 43 43 43 42 42 41 41 40 39
37 36 37 37 38 39 41 43 44 46 47 48 49 49 49 48 48 47 47 47 47 47 47 46 46 46 45 44 43 43 42 42 42 41 41 40 39 39 39 38 38 38 38 38 39 39 39 40 40 41 41 41 42 42 42 42 42 42 42 42 42 42 42 43 43 44 44 44 44 43 43 43 42 42 41 41 41 41 40 40 40 40 40 39 39 39
37 37 38 39 40 42 43 44 46 47 49 49 49 50 49 49 49 49 48 48 48 47 47 46 46 45 44 44 43 42 41 41 41 40 40 39 38 38 38 37 37 37 37 37 38 38 39 39 39 40 40 40 41 41 41 41 41 41 41 41 41 41 41 42 42 42 42 41 41 40 40 39 39 38 38 38 37 37 37 37 37 37 37 38 38 38
38 38 39 41 42 44 45 46 47 48 49 50 50 50 50 50 50 49 49 49 48 48 47 46 45 45 44 43 42 41 41 40 40 39 39 38 37 37 37 36 36 36 37 37 37 38 38 38 39 39 39 40 40 40 41 41 41 41 40 40 40 40 40 40 40 39 39 38 38 37 37 36 36 35 35 34 34 34 34 34 35 35 35 36 36 36
39 40 41 43 45 46 47 48 48 49 49 50 50 51 50 50 50 50 50 50 49 49 48 47 46 45 44 43 42 41 40 40 39 38 38 37 37 36 36 36 36 36 36 36 37 37 38 38 39 39 40 40 40 40 41 41 40 40 40 40 39 39 38 37 37 36 36 35 35 34 34 33 33 32 32 31 31 31 31 32 32 32 32 33 33 33
41 42 43 45 47 48 49 49 49 49 49 50 50 51 51 51 51 51 51 51 50 49 48 48 47 45 43 42 41 40 40 39 38 38 37 37 36 35 35 35 36 36 36 36 36 37 37 38 39 39 40 40 41 41 41 41 40 40 39 39 38 37 36 35 35 34 33 33 32 32 31 31 31 30 30 29 29 29 29 29 29 29 29 29 29 29
43 44 46 47 48 49 50 50 50 49 49 50 50 51 51 52 52 52 51 51 50 50 49 48 47 45 43 41 40 39 39 39 38 37 37 36 36 35 35 35 36 36 36 35 36 36 37 38 39 40 40 41 41 41 41 41 41 40 39 38 37 35 34 34 33 32 32 31 30 30 30 29 29 28 28 28 28 27 27 27 27 27 27 26 26 26
45 46 48 49 50 50 50 51 51 50 50 50 50 50 51 51 52 52 52 52 51 50 49 48 47 45 44 42 40 38 38 38 38 37 36 36 35 35 35 36 36 35 35 35 35 35 36 37 39 40 41 41 42 42 42 41 41 40 39 37 36 34 33 32 32 31 30 30 29 29 28 28 28 27 27 27 27 27 27 26 26 26 25 25 24 24
47 48 49 50 51 51 51 51 51 51 51 51 51 51 51 51 51 52 52 52 51 50 49 48 46 45 43 42 40 39 38 37 37 37 36 35 35 35 35 36 36 35 35 34 34 35 36 37 38 39 40 41 42 42 42 41 41 39 38 36 35 33 32 31 31 30 29 29 28 28 28 27 27 27 27 27 27 26 26 26 25 25 24 23 23 23
48 49 50 51 51 51 52 52 52 52 52 52 52 52 52 52 52 52 52 52 51 49 48 48 46 45 43 41 40 39 38 38 37 36 36 36 35 36 36 36 36 35 34 34 34 35 35 37 38 39 40 41 41 42 41 41 40 39 37 35 34 32 31 30 30 29 28 27 27 27 27 27 26 26 26 26 26 26 26 25 24 23 22 21 21 22
50 50 51 52 52 52 52 53 53 53 53 53 53 52 52 53 52 52 51 51 50 49 48 47 46 45 43 41 39 39 38 38 37 37 36 36 36 36 36 36 36 35 35 35 35 35 36 37 38 39 40 41 41 41 41 40 39 38 36 34 33 31 30 29 28 27 27 26 26 26 26 26 26 26 26 26 25 25 25 24 23 21 19 20 22 23
51 51 52 52 53 53 53 54 54 54 54 54 53 53 53 52 52 51 51 50 49 48 47 46 45 44 43 41 39 38 38 38 38 37 37 37 36 36 37 37 36 36 35 35 36 36 37 38 39 40 41 41 41 41 40 39 38 36 35 33 32 30 29 28 26 26 25 25 25 25 25 25 25 25 25 25 24 24 23 22 20 19 18 20 22 22
51 52 53 53 54 54 54 55 55 55 54 54 53 53 53 52 52 51 50 49 48 47 46 46 45 44 42 40 39 38 38 38 38 38 38 37 37 36 36 37 37 36 36 36 37 38 39 40 41 42 42 42 42 41 40 39 37 35 33 32 30 29 27 26 25 24 24 24 24 24 25 25 25 25 24 24 23 23 22 21 19 18 19 21 22 22
52 53 54 54 55 55 55 55 55 55 55 54 54 53 52 52 51 50 49 48 47 47 46 45 45 45 43 41 39 38 38 39 39 39 38 37 37 37 37 37 38 37 37 37 38 39 40 41 42 43 43 43 43 42 40 38 36 34 32 31 29 27 25 24 23 23 23 23 24 24 24 25 25 24 24 23 22 22 21 20 19 18 19 20 21 21
53 54 55 55 56 56 56 56 56 55 55 54 54 53 52 51 50 49 48 47 46 46 45 45 45 44 44 42 40 38 38 38 39 39 39 38 37 37 38 39 39 39 39 39 40 41 42 43 43 44 44 44 43 42 40 38 35 33 31 29 27 25 24 23 22 22 22 23 23 24 24 24 24 24 23 22 22 21 20 20 19 20 20 21 21 20
54 55 55 56 56 57 56 56 56 55 55 54 54 53 52 51 49 48 47 46 45 45 45 44 44 43 43 42 41 40 39 38 39 40 40 39 39 39 40 40 41 41 40 40 41 42 43 43 44 44 44 44 43 42 40 37 35 33 30 28 26 24 23 22 21 22 22 23 23 24 24 24 24 23 23 22 21 21 20 20 20 21 21 22 22 22
55 55 56 56 57 57 57 56 56 55 54 54 53 52 51 50 48 47 46 45 44 43 43 43 43 43 42 41 40 39 39 38 39 40 41 41 41 41 41 42 43 43 42 42 42 43 44 44 43 43 43 43 42 41 39 36 34 32 30 27 25 24 22 22 21 22 22 23 23 24 24 24 24 23 22 22 21 21 20 20 20 21 21 22 22 22
56 56 56 56 57 57 57 56 55 54 53 53 52 51 49 48 47 45 44 43 43 43 42 42 42 42 41 40 39 39 38 38 38 40 41 41 41 42 42 43 44 43 43 43 43 44 44 44 43 42 42 41 40 39 37 35 33 31 29 27 25 23 22 22 22 22 23 23 23 24 24 23 23 22 22 22 21 21 21 20 20 21 21 21 21 22
56 56 56 56 56 56 56 55 54 53 51 51 50 49 47 46 45 44 43 42 42 42 42 42 41 41 41 40 39 38 37 37 37 39 40 41 41 42 42 43 44 44 43 43 44 44 44 43 42 41 40 39 38 37 35 34 32 30 28 26 25 23 22 22 22 22 23 23 23 23 23 22 22 22 21 21 21 21 21 21 21 21 21 21 21 22
56 56 56 55 55 55 54 53 52 50 49 47 46 45 45 43 43 42 42 41 41 41 41 41 41 41 40 39 38 37 36 36 37 38 39 40 41 41 42 42 43 43 44 44 44 44 43 41 40 39 38 37 36 35 34 32 31 29 28 26 25 24 23 22 22 23 23 22 22 22 22 21 21 21 21 21 21 21 21 21 21 21 21 22 22 21
55 55 55 54 53 53 52 51 49 47 45 44 42 42 41 41 40 40 41 40 40 40 40 40 40 39 38 37 36 36 35 36 37 38 39 40 41 41 41 42 42 43 44 44 44 43 41 39 38 36 35 35 34 33 32 31 30 28 27 26 25 24 23 23 23 23 22 22 22 21 21 20 20 20 20 20 21 21 21 22 22 22 22 22 22 21
54 54 53 52 51 50 49 48 46 44 43 41 40 39 39 39 39 39 39 39 39 39 39 39 38 38 37 37 36 36 36 37 37 38 39 40 40 41 41 41 42 43 43 43 43 41 40 38 36 34 33 32 31 31 30 29 29 28 27 26 25 24 23 23 23 23 22 22 21 21 20 20 20 20 20 21 21 22 22 23 23 23 23 23 22 22
53 52 51 50 49 48 47 45 44 42 41 40 39 38 38 38 39 39 39 38 38 37 37 38 38 37 37 36 35 35 36 36 37 38 38 39 40 40 40 41 42 43 43 42 41 40 38 36 34 32 30 30 29 29 28 28 28 27 27 26 25 24 24 23 23 23 22 22 21 20 20 20 20 20 21 21 22 23 23 24 24 25 25 24 24 23
51 50 49 48 46 46 44 43 42 40 37 39 39 37 38 38 39 39 39 38 37 37 37 37 37 36 35 34 33 33 34 36 37 37 38 39 40 40 41 41 42 43 43 42 40 38 36 34 32 30 28 27 27 27 27 27 27 26 26 25 25 24 24 23 23 23 22 22 21 20 20 20 20 21 21 22 23 24 25 25 26 26 26 26 25 25
49 47 46 44 43 42 41 41 41 39 37 38 37 36 37 37 38 38 38 38 38 38 38 38 38 36 34 33 32 32 33 35 36 38 38 39 40 40 41 41 42 43 42 41 38 36 34 32 30 28 26 25 25 25 25 25 26 25 25 25 25 24 24 24 23 23 22 22 21 21 20 20 21 21 22 23 24 25 26 26 27 27 27 27 27 26
45 43 42 40 39 39 38 38 38 38 38 38 38 38 37 37 36 35 35 36 38 39 39 39 38 36 34 32 31 31 32 34 36 37 38 39 39 40 41 41 42 42 41 39 37 35 32 30 28 26 24 24 24 24 24 24 24 24 24 24 24 24 24 24 23 23 22 22 21 21 21 21 21 22 23 24 25 26 27 28 28 28 29 28 28 28
42 40 39 38 37 37 37 37 37 37 37 37 37 37 37 37 36 35 34 35 36 37 38 38 37 36 34 33 32 32 33 35 36 37 38 38 39 40 40 40 40 40 39 38 37 34 30 28 26 24 23 22 22 23 23 23 23 23 23 23 23 24 24 24 23 23 22 22 21 21 21 21 22 23 24 25 26 27 28 29 30 30 30 30 29 29
40 38 37 36 36 35 35 36 36 36 36 36 37 37 37 37 37 36 35 34 34 35 36 36 35 35 34 34 34 34 35 36 36 37 37 37 38 39 39 38 38 37 38 38 37 34 30 26 24 22 22 21 21 22 22 22 22 22 22 22 23 23 23 23 23 23 22 22 22 22 22 22 22 23 24 25 27 28 29 30 31 31 31 31 30 29
38 37 36 35 35 35 35 35 35 35 35 36 36 36 36 36 36 35 35 34 33 33 33 33 33 33 34 33 33 34 34 35 35 35 36 36 37 37 36 35 35 36 37 38 38 36 32 27 22 20 20 20 20 21 21 22 22 22 22 22 22 22 23 23 22 22 22 21 21 22 22 22 23 24 25 26 27 28 30 31 32 32 32 31 30 28
36 36 36 36 36 36 36 36 36 36 36 36 36 35 35 35 35 34 34 33 33 33 33 32 32 32 32 32 32 32 32 33 34 34 34 35 35 35 34 34 34 35 36 37 36 36 33 29 24 20 19 19 19 19 20 21 21 21 22 22 22 22 22 22 21 21 21 21 21 21 22 22 23 24 25 26 27 29 30 31 32 32 32 31 29 27
36 36 36 36 36 36 36 36 36 36 36 36 36 36 35 35 34 33 32 32 32 32 32 31 31 31 31 30 30 30 30 32 33 33 33 33 33 33 33 34 35 35 36 35 35 33 32 29 26 22 19 18 17 18 19 20 21 21 21 21 21 21 21 21 21 20 20 20 21 21 21 22 23 24 25 26 28 29 30 31 31 31 30 29 28 26
36 37 37 37 37 37 37 37 37 37 37 37 37 36 36 35 33 32 31 31 30 30 30 29 29 29 29 29 29 29 29 30 31 32 32 32 32 33 34 34 35 35 35 34 33 32 30 28 26 23 21 18 17 17 18 19 20 20 21 21 21 21 21 20 20 20 20 20 21 21 22 23 24 24 25 26 27 28 28 29 28 28 27 26 25 24
37 38 38 37 37 37 37 37 37 37 37 37 37 36 35 34 33 32 31 29 29 28 28 27 27 28 28 29 29 29 30 31 32 33 33 32 32 33 33 34 34 34 34 33 32 31 29 27 25 24 22 19 17 16 17 18 19 19 20 20 20 20 20 20 20 20 20 21 21 22 23 24 24 25 25 26 26 26 26 26 25 24 23 23 22 22
39 39 38 38 38 38 38 38 37 37 37 36 36 35 35 34 32 31 30 28 27 27 26 26 26 27 28 30 31 31 32 33 33 34 33 32 32 32 32 33 33 33 33 33 32 31 29 27 25 23 21 20 17 16 16 16 17 18 18 18 18 19 19 20 20 20 21 21 22 23 24 24 25 25 24 24 24 24 23 23 22 21 20 19 19 19
40 40 39 39 38 38 38 38 37 36 36 35 35 34 33 32 31 30 28 27 26 25 25 26 27 28 29 30 31 32 33 33 33 33 32 31 30 30 31 31 32 32 33 33 32 30 29 27 24 22 20 19 18 17 16 16 16 16 16 16 16 17 18 19 20 21 21 22 23 24 24 25 24 23 22 22 21 21 21 20 19 18 16 15 15 16
40 40 40 39 39 38 38 37 36 35 34 34 33 32 31 30 29 28 27 25 24 23 24 25 26 27 27 28 29 30 30 30 30 29 28 28 28 29 30 30 31 32 32 32 31 30 28 27 25 23 20 18 17 17 17 16 16 15 14 14 15 16 17 18 19 20 21 22 23 24 24 24 23 21 20 20 20 19 18 17 15 13 12 12 12 13
40 40 40 39 38 38 37 36 35 34 33 32 31 30 29 28 27 26 25 23 21 21 21 22 22 22 22 23 24 24 24 24 24 24 25 26 27 28 29 30 31 31 31 31 30 29 28 26 25 23 21 19 17 16 16 16 16 15 14 14 14 14 15 17 19 20 21 23 23 24 23 22 20 19 19 19 20 19 17 14 12 10 10 10 10 10
40 40 39 39 38 36 35 34 33 32 31 30 29 28 27 26 25 24 23 21 19 17 17 17 17 17 17 18 19 20 20 21 22 23 24 25 26 28 29 30 31 31 31 30 29 28 27 25 23 22 20 19 18 16 16 16 16 16 15 14 14 14 15 17 18 20 21 22 23 22 21 20 19 18 18 19 19 18 16 13 12 11 11 11 11 11
41 40 39 38 36 35 33 32 31 30 29 28 26 26 25 24 22 21 19 17 15 14 13 13 14 14 16 17 18 19 20 21 22 23 24 26 27 29 30 31 31 31 30 29 28 26 25 23 22 20 19 18 17 16 15 15 15 16 16 16 15 15 15 17 18 20 21 21 22 21 20 19 18 17 17 17 17 16 15 14 14 13 14 14 14 14
40 39 38 36 34 33 31 30 29 27 26 25 24 23 22 21 19 17 15 14 14 13 13 13 14 15 17 18 19 20 21 22 24 25 26 27 29 30 31 31 31 30 29 28 27 25 23 22 20 19 18 17 16 15 15 14 14 15 16 16 16 16 16 17 18 19 20 21 21 20 19 17 16 16 16 16 16 16 15 15 15 15 16 16 16 16
39 38 36 34 32 30 29 27 26 25 24 23 22 22 21 19 17 15 14 14 14 14 14 14 15 16 17 18 20 21 22 24 25 26 28 29 30 30 31 30 30 29 28 27 26 24 21 19 18 17 16 16 15 15 14 14 14 14 15 16 17 17 17 17 18 19 19 20 20 19 18 16 15 15 15 16 16 16 16 15 15 15 15 15 15 15
38 36 34 32 30 28 27 25 24 23 22 21 21 20 19 17 15 13 12 13 13 14 14 15 16 17 19 20 21 22 24 25 27 28 29 30 30 30 29 29 28 27 26 25 24 22 19 17 15 15 14 14 14 14 14 14 13 14 15 16 17 18 18 19 19 20 19 19 19 18 16 15 15 15 15 15 15 15 15 14 14 13 13 13 13 13
35 33 31 29 28 26 24 23 22 21 20 19 19 18 16 14 12 11 10 11 12 13 14 16 17 19 20 21 22 24 25 27 28 29 30 30 29 28 28 27 26 25 24 23 22 20 18 15 14 13 12 13 13 13 14 14 14 14 14 15 16 17 18 19 20 20 20 19 18 17 16 15 15 14 14 13 13 13 13 12 12 11 12 12 12 12
32 31 29 27 25 24 22 21 20 19 18 17 16 15 14 12 10 9 9 10 12 14 15 17 18 20 21 23 24 26 27 27 28 28 28 27 27 26 25 24 24 23 22 21 20 18 16 14 12 11 11 11 12 13 13 14 14 14 15 15 15 15 16 17 18 19 19 19 18 16 15 14 14 13 12 11 11 11 12 12 12 12 12 13 13 13
29 28 26 24 23 21 20 19 18 17 16 15 14 12 11 11 10 10 10 11 12 14 16 18 20 21 23 25 26 27 27 27 27 27 25 24 23 22 21 21 21 21 20 20 19 17 14 13 12 11 11 11 11 12 13 14 14 15 15 15 15 15 15 16 17 18 18 18 17 16 15 14 13 12 11 10 10 11 12 12 13 14 14 14 14 13
27 25 23 21 20 19 18 17 16 15 14 13 11 10 10 10 10 10 11 12 14 16 18 20 21 23 24 25 26 27 27 26 25 24 23 21 20 19 18 18 18 18 18 18 17 16 14 12 11 11 10 11 11 11 12 13 13 14 14 15 15 15 15 15 16 17 17 17 16 16 15 14 13 12 11 10 11 12 14 14 15 15 15 15 14 14
24 22 20 19 18 17 16 15 14 14 12 11 9 9 9 9 10 11 12 14 16 18 20 21 22 23 24 25 26 26 25 25 23 22 20 19 18 16 16 15 15 14 14 15 15 15 14 12 11 10 9 10 10 10 10 11 11 12 13 14 15 15 15 15 15 16 16 16 15 14 14 13 13 12 12 12 14 15 16 16 16 16 16 15 15 15
21 20 18 16 15 14 13 13 13 12 11 10 9 8 8 9 11 12 14 16 18 20 21 22 23 23 24 24 24 24 23 22 21 20 18 17 16 15 14 13 12 12 11 11 12 13 13 12 11 9 8 8 8 9 8 8 9 10 12 13 14 14 14 14 14 15 15 15 14 13 13 13 14 14 15 16 17 17 18 18 17 17 17 16 16 16
19 17 16 14 13 12 11 11 11 11 10 10 9 8 9 10 12 14 16 17 19 20 21 22 23 23 24 24 23 22 21 20 19 18 17 16 15 14 13 12 11 10 9 9 9 10 11 11 11 10 8 7 7 8 8 7 8 9 11 13 13 13 13 13 13 14 14 14 13 13 13 14 15 17 18 19 19 19 19 19 18 18 18 17 17 17
Wind_Direction
307 308 308 308 308 307 307 307 307 308 308 309 310 311 312 313 314 314 314 314 314 314 314 315 315 316 316 315 315 314 313 312 311 310 309 309 308 308 308 307 307 307 307 307 307 307 307 307 307 307 306 306 305 304 304 303 302 302 301 301 301 301 301 301 300 300 299 298 298 297 296 296 295 294 294 293 292 292 291 290 288 287 286 285 284 284
307 307 307 307 307 307 307 307 308 308 309 310 311 312 312 313 314 314 314 314 314 314 314 315 315 315 315 314 314 313 312 311 310 309 308 308 308 307 307 307 307 307 308 308 308 308 308 308 307 307 306 305 304 303 302 301 301 300 300 300 300 300 301 300 300 299 299 298 297 297 296 295 294 293 292 292 291 290 290 289 288 288 287 286 285 284
307 307 307 307 307 307 307 308 309 309 310 311 312 312 313 314 314 314 314 314 314 314 314 314 315 314 314 313 312 312 311 310 309 308 308 308 308 308 308 308 308 308 309 309 309 309 308 308 307 306 305 304 303 302 301 300 300 300 300 300 300 301 301 301 301 300 300 299 298 297 296 295 294 293 293 292 291 290 289 289 288 288 287 286 286 285
307 307 307 307 307 307 308 309 310 311 312 312 313 313 313 314 314 314 315 315 315 314 314 314 314 314 313 313 312 311 310 309 309 308 308 308 308 308 309 309 309 310 310 310 309 309 308 307 306 305 304 303 303 302 301 301 300 301 301 302 302 303 303 303 303 302 302 301 300 299 298 297 296 295 294 293 292 291 290 290 289 289 288 288 287 286
307 307 307 308 308 308 309 310 311 312 313 313 313 313 314 314 315 315 315 315 315 315 315 314 314 313 313 312 312 311 311 310 309 309 309 309 309 310 310 310 310 310 310 309 309 308 307 306 306 305 305 304 304 303 303 303 303 303 304 304 305 306 306 306 306 305 304 303 302 301 300 299 298 297 296 295 294 294 293 292 292 291 290 289 288 287
308 308 308 309 309 309 310 311 313 314 314 314 313 314 314 314 315 315 315 315 315 315 315 314 314 313 313 313 312 312 311 311 310 310 310 310 311 311 311 311 311 310 310 309 308 307 307 307 307 306 307 306 306 306 305 305 306 306 307 308 309 310 310 309 308 307 306 305 304 303 302 301 300 299 299 298 297 296 295 294 293 292 291 290 289 289
308 309 309 310 310 310 311 312 314 314 315 314 314 314 314 314 315 315 315 315 315 315 315 315 314 314 314 314 313 313 312 312 311 311 311 311 311 311 312 311 311 310 309 308 308 308 308 308 309 310 310 310 309 309 309 308 309 309 310 311 312 313 313 312 310 309 308 307 305 304 303 303 302 301 300 300 299 297 296 295 294 293 293 292 292 291
309 310 310 310 311 311 312 313 314 314 315 314 314 314 315 315 315 315 315 315 315 315 315 315 315 314 314 314 314 313 312 312 311 311 311 311 311 312 312 311 311 310 309 309 309 310 311 312 313 313 313 313 312 312 311 311 311 312 313 314 315 315 314 313 312 310 309 307 306 305 304 304 303 303 302 302 301 300 300 299 299 298 298 297 297 297
310 310 310 310 311 312 313 313 314 314 314 314 314 315 315 315 315 314 314 315 315 315 315 315 315 315 314 314 314 313 312 312 311 311 311 312 312 312 312 312 311 311 311 311 312 313 315 316 317 317 317 316 315 314 314 313 314 314 315 317 317 317 316 314 312 311 309 308 306 305 304 304 303 304 304 304 303 304 304 304 303 303 303 303 303 302
310 310 310 311 312 313 313 314 314 314 314 314 314 315 315 315 315 314 314 315 315 315 315 315 314 314 314 314 314 313 312 311 311 311 312 312 312 312 312 312 312 313 314 315 316 317 318 319 320 320 319 318 317 316 315 315 315 316 317 317 318 317 316 314 312 311 309 308 306 305 304 304 304 304 304 304 305 305 305 305 305 305 305 306 306 307
310 310 311 311 312 312 313 313 313 313 314 314 315 315 315 315 314 314 314 315 315 315 315 314 314 314 314 314 314 313 312 311 311 312 312 312 312 312 312 312 314 315 317 318 319 319 320 321 321 321 321 319 317 316 315 315 315 316 317 318 317 317 315 314 312 310 308 307 305 304 304 304 304 304 304 304 304 305 304 304 304 305 306 307 309 310
310 310 311 311 312 312 312 313 313 313 314 315 315 315 315 315 315 314 314 314 315 315 314 314 313 313 313 314 313 313 312 311 311 311 312 311 311 311 312 314 316 318 319 320 320 320 321 321 322 322 321 319 317 316 315 315 315 316 317 317 317 316 315 313 311 309 307 305 304 303 303 303 303 303 304 304 304 304 304 304 304 305 307 309 311 313
310 310 311 311 311 312 312 313 314 314 315 316 316 316 316 315 314 314 314 314 314 314 313 313 312 312 313 313 313 312 312 311 311 311 311 311 311 312 314 315 317 319 320 320 320 321 321 322 322 322 321 319 317 316 315 315 315 316 316 316 316 315 314 312 310 308 306 305 304 303 303 303 303 303 303 303 303 303 303 303 304 305 308 310 310 309
310 310 311 311 312 312 313 314 315 316 316 316 316 316 315 314 314 313 313 313 313 313 312 311 311 311 312 312 313 312 311 311 310 310 310 311 312 314 315 316 318 319 321 321 321 322 323 323 323 322 321 319 317 316 315 315 316 316 316 316 315 314 313 311 309 307 305 304 303 303 303 303 303 303 303 303 303 303 303 303 303 304 307 306 304 301
311 311 312 312 313 314 315 315 315 316 316 316 316 315 314 313 313 312 312 312 312 311 311 310 310 310 311 311 312 312 311 310 310 310 310 311 312 314 316 316 317 319 321 322 323 324 324 324 324 323 321 319 317 316 316 316 316 316 316 316 315 314 313 311 309 307 306 305 304 304 304 304 303 303 303 303 303 303 303 302 300 300 302 299 297 297
311 312 313 314 314 314 315 315 315 315 315 315 314 314 313 312 312 312 311 311 310 310 310 309 309 310 310 311 311 311 311 310 309 309 310 311 312 314 316 316 317 319 321 322 323 324 325 325 325 324 321 319 317 316 316 317 317 317 317 317 316 315 313 312 310 308 307 306 305 305 305 304 304 303 303 303 302 302 302 300 297 295 294 291 290 292
313 314 314 314 314 315 315 315 315 315 315 314 314 313 312 312 311 311 310 310 310 309 309 309 309 309 310 310 311 311 311 310 310 309 309 310 312 314 316 317 318 319 320 322 323 324 325 326 325 324 321 319 317 316 316 317 317 318 318 317 317 316 315 313 311 310 309 308 307 306 305 304 304 303 302 302 301 301 300 298 295 292 291 289 288 289
314 314 314 314 314 314 314 314 315 314 314 313 313 312 312 311 311 310 310 309 309 308 308 308 308 309 309 310 310 311 311 310 310 310 310 311 313 315 317 317 318 318 319 321 322 324 325 325 325 323 320 318 316 316 316 317 318 318 318 318 317 317 316 314 313 312 311 309 308 307 306 305 303 302 301 300 299 299 298 297 295 293 292 291 290 290
314 314 314 314 314 313 313 314 314 314 313 312 312 311 311 310 310 309 309 308 308 307 307 307 308 308 308 309 309 310 311 311 311 311 311 312 314 315 316 316 316 317 318 319 321 323 324 324 323 322 319 317 315 315 316 317 318 318 318 318 317 317 316 316 315 314 312 311 309 307 306 304 303 301 300 299 298 297 297 297 296 296 295 294 294 293
313 313 313 313 313 313 313 313 313 312 312 311 311 310 310 310 309 309 308 308 307 306 306 306 306 307 307 308 308 309 310 311 311 311 311 312 313 314 314 313 313 314 316 318 320 321 322 323 322 320 318 315 314 314 315 316 317 317 318 317 317 317 317 316 316 315 313 312 310 308 306 304 302 300 298 297 297 297 297 298 299 299 299 299 299 298
312 312 312 312 312 311 311 311 312 311 311 310 310 310 309 309 309 308 307 307 306 305 305 306 306 306 307 307 308 309 310 310 309 308 308 308 309 310 310 310 311 312 314 316 318 320 321 322 321 319 317 314 313 313 314 315 316 317 317 317 317 317 317 317 317 316 314 312 311 308 306 304 301 299 298 297 297 298 300 301 302 303 303 303 303 303
311 311 311 311 310 310 310 310 310 310 310 309 309 309 309 309 308 308 307 306 306 306 306 306 306 306 307 307 308 308 307 305 304 303 303 304 305 307 308 308 309 310 312 314 317 319 320 321 320 318 316 313 312 313 314 315 315 316 316 316 316 317 317 317 317 316 315 314 312 309 306 304 301 299 298 298 299 301 302 303 304 305 306 306 306 306
310 310 310 310 309 308 308 308 308 308 308 308 308 308 308 308 308 307 307 307 306 306 305 305 305 305 305 305 304 303 301 300 298 299 300 302 304 305 307 307 308 309 311 313 316 318 320 320 320 318 315 313 312 312 313 314 314 314 315 315 315 316 316 317 317 317 316 314 313 310 308 305 303 301 301 301 302 303 304 305 306 307 307 308 308 309
309 309 309 308 307 307 307 307 307 308 308 308 308 308 309 309 308 307 307 306 305 304 303 303 302 302 301 300 300 299 298 298 297 298 300 302 304 305 306 307 307 308 310 313 316 318 320 320 319 317 315 313 312 312 312 312 313 313 313 314 314 315 316 317 317 317 317 316 314 312 309 307 305 305 305 305 305 306 306 307 308 309 310 311 312 313
309 308 308 307 307 307 307 307 307 308 310 310 310 310 310 310 308 307 306 306 304 303 302 301 300 300 300 300 300 300 299 299 300 301 302 303 304 305 306 306 307 308 310 313 316 318 320 320 319 318 315 313 311 311 311 311 311 311 312 312 313 314 315 316 317 317 317 316 315 314 312 310 309 308 308 308 308 308 309 309 310 311 312 313 315 316
309 308 308 308 308 308 308 308 309 310 310 311 311 310 310 309 308 306 306 305 304 303 302 302 301 301 301 302 302 302 301 301 301 302 302 303 304 305 306 307 307 308 310 313 316 318 320 320 320 318 315 313 311 310 310 310 309 310 310 311 312 313 314 316 316 317 317 317 316 315 314 312 311 311 310 310 310 310 310 311 312 313 314 315 316 317
309 308 308 308 308 309 309 310 311 311 310 310 309 307 306 306 305 305 305 304 303 303 302 303 303 303 303 303 303 302 301 300 300 301 301 302 303 304 305 306 308 309 311 313 316 318 320 321 320 319 316 313 311 309 308 308 308 308 309 310 311 312 314 315 316 317 318 318 317 316 315 314 313 312 311 311 311 311 311 312 312 313 315 316 316 317
308 308 308 308 308 309 309 309 309 309 309 308 307 305 304 303 302 301 299 298 298 299 300 301 303 303 303 302 300 298 297 297 297 298 299 301 302 303 305 306 308 310 311 314 316 318 320 321 321 320 317 314 311 309 307 307 307 307 308 309 310 311 313 315 316 317 318 318 318 317 316 315 313 313 312 312 311 311 312 312 313 314 315 316 317 317
308 308 308 309 309 309 308 308 308 307 307 306 305 304 302 300 298 294 291 290 290 292 296 299 301 302 301 299 296 294 292 293 294 296 298 299 301 303 305 307 309 311 313 314 316 317 320 322 323 322 319 315 312 309 307 306 306 306 306 307 309 311 312 314 316 318 319 318 318 317 316 315 314 313 312 312 311 311 311 312 313 314 315 316 316 317
310 310 309 309 309 309 309 308 307 306 306 305 304 302 301 299 296 293 289 286 285 287 292 296 299 300 300 299 297 295 294 294 295 296 298 300 302 304 306 309 311 313 314 316 317 318 320 323 325 324 321 317 313 310 307 306 305 305 305 306 308 310 312 314 316 318 319 319 318 317 316 315 314 312 312 311 311 310 311 311 312 313 314 315 316 316
311 311 310 310 310 309 309 308 307 306 305 304 303 302 300 298 296 293 290 285 282 282 287 292 296 297 298 299 298 297 296 296 297 298 299 301 303 306 309 311 313 314 316 317 319 321 322 325 326 326 323 319 315 311 308 306 305 305 305 307 308 310 312 314 316 318 319 319 318 317 316 314 313 311 310 310 310 310 310 311 311 312 313 314 314 315
311 311 311 311 311 310 310 309 308 307 306 304 303 302 300 299 297 295 291 287 282 279 281 285 290 293 296 298 298 298 296 296 296 298 300 303 306 308 311 313 314 315 316 318 320 323 325 326 328 328 326 322 317 312 309 307 306 306 307 308 309 311 312 315 317 318 319 318 317 316 314 313 311 310 309 309 309 310 310 310 311 311 312 313 313 314
312 312 312 312 312 311 311 310 309 307 306 305 304 302 301 300 299 297 294 290 286 282 279 280 285 290 293 295 296 296 295 295 296 298 302 306 308 311 312 313 314 315 316 318 321 323 326 328 328 329 328 324 319 314 310 308 307 308 309 310 311 313 314 316 317 318 318 318 316 314 313 311 310 310 310 310 310 310 309 309 310 310 311 312 313 315
313 313 314 313 313 312 311 310 309 308 307 305 304 303 302 301 300 299 297 295 291 287 283 281 283 286 290 293 294 294 294 296 298 301 305 308 310 311 313 314 315 315 317 319 322 325 327 329 329 329 329 327 322 317 313 310 310 310 311 313 314 315 316 317 318 319 318 317 316 314 312 311 311 312 312 312 311 310 309 309 309 310 311 313 315 316
314 315 315 314 313 312 311 310 309 308 307 305 305 304 303 302 302 301 300 299 296 293 289 285 283 283 286 288 291 293 295 297 300 302 306 308 310 312 313 314 315 316 318 321 324 327 328 330 330 330 329 328 324 319 315 313 312 313 314 316 317 318 319 319 320 320 319 318 317 316 315 315 315 316 316 315 313 311 310 310 311 312 314 316 317 319
316 315 315 314 313 312 311 310 309 308 307 306 305 304 304 304 303 303 303 302 300 298 294 289 284 281 281 283 286 290 294 296 299 302 305 308 310 311 313 314 316 318 320 323 326 328 330 331 331 331 330 329 326 322 318 315 315 316 318 319 321 321 321 321 321 321 321 320 319 319 319 319 320 320 319 317 315 313 313 314 315 317 318 319 320 321
316 316 315 314 313 312 311 310 309 308 307 306 305 305 305 305 305 305 305 304 303 301 298 293 288 284 282 282 284 288 291 294 297 301 304 307 309 312 314 315 317 319 322 325 327 329 331 331 331 331 331 330 328 325 321 318 318 320 322 324 324 324 323 322 322 322 322 322 322 322 322 323 324 324 323 321 319 318 319 320 321 322 323 323 323 324
315 315 315 314 313 312 311 310 309 308 307 306 306 306 306 306 306 307 306 306 305 302 298 296 293 291 290 289 289 290 293 296 299 302 305 308 310 313 315 316 318 321 323 326 328 330 331 331 332 332 332 331 330 328 325 324 324 326 329 330 329 327 325 324 323 323 323 323 323 324 325 327 329 330 329 327 326 326 327 328 329 329 329 330 330 330
315 314 314 313 313 312 311 310 310 309 308 307 307 307 308 308 309 309 309 308 305 301 298 297 298 298 299 298 298 299 301 303 305 307 309 311 313 315 317 318 320 322 324 327 329 330 331 331 332 332 332 332 332 331 329 329 329 331 333 334 333 331 328 326 325 324 324 324 325 327 329 333 336 338 337 334 333 334 337 342 345 346 346 347 348 347
314 314 314 313 313 312 312 311 310 310 309 309 309 309 310 311 312 312 311 311 309 306 304 305 308 310 310 309 309 309 310 310 311 312 313 314 316 317 319 320 321 323 325 327 329 330 331 331 332 332 331 332 333 334 334 334 334 334 334 336 337 335 332 329 327 326 326 327 329 332 336 341 344 345 343 340 339 341 348 356 3 7 7 8 9 10
314 314 314 313 313 313 312 312 311 311 310 310 311 312 314 315 315 315 315 316 316 316 318 322 323 321 318 315 314 313 313 313 314 315 316 317 318 319 320 320 321 323 324 327 329 330 331 332 332 332 332 332 334 336 338 338 338 337 336 337 337 337 335 332 331 330 330 332 335 339 343 348 350 350 346 343 344 348 356 3 9 13 16 17 18 19
314 314 314 313 313 313 313 312 312 312 312 313 314 316 317 317 317 318 321 325 328 330 332 332 327 321 316 313 313 313 314 314 315 316 317 318 319 319 320 320 321 323 324 326 328 331 332 333 333 333 333 333 334 337 340 342 341 340 339 338 338 337 337 337 336 336 337 339 342 345 349 352 354 352 347 345 348 354 1 6 11 15 18 19 20 19
314 314 314 314 314 314 314 313 313 314 314 316 318 319 318 318 320 323 329 333 335 335 332 327 321 316 314 314 314 314 314 315 315 316 317 317 318 318 319 319 320 322 323 325 327 330 333 335 335 335 334 334 336 338 341 344 345 344 342 341 340 340 341 342 342 343 344 345 347 349 352 354 354 352 349 348 351 358 5 11 15 18 20 21 21 18
314 314 314 315 315 315 315 315 316 316 318 320 321 322 321 323 326 331 334 333 331 327 322 318 315 314 314 314 314 314 314 314 314 315 315 316 316 317 317 318 319 321 323 324 327 330 334 338 339 339 337 337 338 340 342 345 347 348 347 346 345 345 346 347 347 348 348 349 351 353 354 355 355 354 353 353 356 4 12 18 22 23 23 22 19 15
314 314 314 315 316 316 317 317 318 320 322 324 325 325 325 328 331 331 327 322 319 316 314 313 312 312 312 312 312 311 312 312 313 313 314 315 315 316 317 317 319 320 322 324 327 331 336 342 345 345 343 341 341 342 344 346 349 351 351 351 351 351 351 350 349 348 348 349 353 356 357 358 0 3 5 4 7 13 21 27 29 27 21 16 11 7
313 313 314 315 316 317 318 320 321 324 326 328 328 329 331 334 335 331 323 317 314 313 312 311 311 311 312 311 311 310 310 310 311 312 313 314 315 316 317 318 319 321 322 324 327 333 339 347 351 352 350 349 347 346 346 348 351 353 355 356 356 357 356 352 348 346 346 348 352 357 1 6 11 18 22 21 22 25 28 28 24 18 12 7 3 0
312 312 313 315 317 318 320 323 326 329 332 332 333 335 338 341 342 338 330 323 318 314 312 312 311 312 312 312 312 312 312 312 312 313 314 315 315 316 317 319 320 321 322 323 327 334 343 352 357 357 357 356 354 351 349 350 352 355 358 360 0 0 359 354 348 345 345 348 353 360 7 17 26 34 37 36 33 30 27 21 15 11 8 6 4 2
311 312 314 316 318 321 324 327 332 336 338 338 339 343 348 351 348 340 331 325 321 318 316 316 316 316 316 315 315 315 316 316 317 317 318 318 319 319 320 320 321 321 322 324 328 335 346 359 5 4 0 359 358 356 354 353 354 357 359 1 2 2 0 355 348 345 346 350 356 5 15 27 36 43 44 39 32 27 22 19 16 14 13 11 10 8
311 312 315 318 321 324 328 334 338 342 344 347 352 357 356 353 345 335 328 326 323 322 321 322 322 322 321 321 320 319 320 321 322 322 323 323 323 324 324 324 324 324 324 326 330 336 347 2 13 12 4 1 360 359 358 357 358 0 2 3 3 3 1 355 349 347 350 356 4 14 24 32 38 39 36 31 27 25 24 23 23 21 19 18 17 15
311 312 315 319 323 328 334 340 345 349 353 359 4 4 355 346 338 333 330 328 327 326 327 327 328 328 328 327 325 325 324 325 325 326 327 327 328 329 329 329 329 329 330 332 334 338 344 357 10 18 14 6 4 4 6 7 8 8 7 5 5 3 1 355 352 353 358 5 14 24 31 35 35 33 29 26 26 27 29 29 28 27 24 22 21 19
310 312 315 320 326 333 340 346 351 355 360 5 5 358 345 337 332 331 331 331 332 333 334 334 335 335 334 333 331 329 329 329 329 330 330 331 332 333 334 335 337 338 341 343 343 344 345 352 3 15 24 19 13 14 18 25 27 23 17 12 8 5 3 1 360 2 7 15 23 31 36 35 32 28 25 25 26 29 31 31 31 29 27 25 23 22
Height
3059 3058 3057 3056 3055 3054 3053 3052 3050 3048 3047 3045 3044 3042 3040 3038 3037 3035 3033 3030 3028 3025 3023 3021 3019 3017 3015 3013 3011 3008 3006 3004 3002 3000 2998 2996 2994 2993 2991 2989 2988 2986 2984 2982 2981 2979 2977 2975 2973 2971 2969 2968 2966 2964 2962 2960 2958 2957 2955 2953 2952 2950 2949 2947 2946 2944 2943 2941 2939 2938 2936 2935 2933 2932 2931 2930 2929 2928 2928 2927 2926 2926 2925 2925 2924 2923
3056 3055 3054 3053 3052 3051 3049 3048 3047 3045 3043 3042 3040 3039 3037 3035 3033 3032 3030 3027 3025 3023 3020 3018 3016 3014 3012 3010 3008 3006 3003 3001 2999 2998 2995 2993 2992 2990 2988 2987 2985 2983 2981 2980 2978 2976 2974 2973 2971 2969 2967 2965 2963 2961 2959 2957 2955 2954 2952 2950 2949 2947 2946 2944 2943 2941 2939 2937 2936 2934 2932 2931 2929 2928 2927 2926 2925 2924 2923 2923 2922 2921 2921 2920 2920 2919
3053 3052 3051 3050 3049 3048 3047 3045 3043 3042 3040 3038 3037 3035 3033 3032 3030 3028 3026 3024 3022 3019 3017 3015 3013 3011 3009 3007 3005 3003 3001 2998 2996 2994 2993 2991 2989 2987 2986 2984 2982 2980 2979 2977 2975 2973 2972 2970 2968 2966 2964 2962 2960 2958 2956 2954 2953 2951 2949 2948 2946 2944 2943 2941 2939 2937 2935 2933 2932 2930 2928 2927 2925 2924 2923 2922 2921 2920 2919 2918 2918 2917 2917 2916 2916 2915
3050 3049 3048 3047 3046 3045 3043 3042 3040 3038 3037 3035 3033 3031 3030 3028 3026 3025 3023 3021 3018 3016 3014 3012 3010 3008 3005 3003 3002 3000 2998 2995 2993 2991 2990 2988 2986 2984 2983 2981 2979 2978 2976 2974 2973 2971 2969 2967 2965 2963 2961 2959 2957 2955 2953 2951 2950 2948 2946 2945 2943 2942 2940 2938 2936 2933 2932 2930 2928 2926 2925 2923 2922 2920 2919 2918 2917 2916 2915 2914 2914 2913 2913 2912 2912 2912
3048 3046 3044 3043 3042 3041 3040 3039 3037 3035 3033 3031 3029 3028 3026 3024 3023 3021 3019 3017 3015 3013 3011 3009 3007 3004 3002 3000 2998 2997 2994 2992 2990 2988 2987 2985 2983 2982 2980 2978 2977 2975 2973 2972 2970 2968 2967 2964 2963 2961 2958 2956 2954 2952 2950 2948 2947 2945 2943 2942 2940 2938 2936 2934 2932 2930 2928 2926 2924 2923 2921 2920 2918 2917 2916 2915 2914 2913 2913 2912 2911 2910 2910 2909 2908 2908
3044 3043 3041 3040 3039 3038 3037 3035 3034 3032 3029 3027 3026 3024 3023 3021 3019 3017 3015 3013 3011 3009 3007 3005 3003 3001 2999 2997 2995 2993 2991 2989 2987 2985 2983 2982 2980 2979 2977 2976 2974 2973 2971 2969 2968 2966 2964 2962 2960 2958 2955 2953 2951 2949 2947 2945 2943 2942 2940 2938 2937 2935 2933 2931 2929 2927 2925 2923 2921 2919 2918 2917 2915 2914 2913 2912 2911 2910 2910 2909 2908 2908 2907 2906 2905 2905
3041 3040 3038 3037 3035 3034 3033 3032 3030 3028 3026 3024 3022 3021 3019 3017 3015 3013 3011 3009 3007 3005 3003 3002 3000 2998 2996 2993 2991 2989 2987 2986 2984 2982 2980 2979 2978 2976 2974 2973 2972 2970 2968 2967 2965 2963 2961 2958 2956 2954 2952 2950 2948 2945 2943 2942 2940 2938 2937 2935 2934 2932 2930 2928 2926 2924 2922 2920 2918 2917 2915 2914 2913 2912 2911 2909 2908 2908 2907 2906 2905 2904 2903 2903 2902 2901
3038 3036 3035 3034 3032 3030 3029 3028 3027 3025 3023 3020 3018 3017 3015 3013 3012 3010 3008 3005 3003 3002 3000 2998 2996 2994 2993 2991 2988 2986 2984 2982 2981 2979 2978 2976 2975 2973 2972 2971 2969 2968 2966 2964 2962 2960 2958 2955 2953 2951 2948 2946 2944 2942 2940 2938 2937 2935 2934 2933 2931 2929 2927 2925 2923 2921 2919 2918 2916 2914 2913 2912 2910 2909 2908 2907 2906 2905 2904 2903 2902 2901 2901 2900 2899 2898
3034 3033 3032 3031 3029 3028 3026 3025 3024 3023 3020 3018 3015 3013 3012 3009 3007 3005 3004 3002 3000 2998 2996 2994 2992 2990 2989 2988 2986 2983 2981 2979 2978 2977 2975 2973 2972 2971 2969 2968 2967 2965 2963 2961 2959 2957 2954 2952 2950 2948 2945 2943 2941 2939 2937 2935 2934 2933 2931 2930 2928 2926 2924 2923 2921 2919 2917 2915 2914 2912 2911 2909 2908 2907 2906 2905 2904 2903 2902 2901 2900 2899 2898 2898 2897 2896
3032 3030 3028 3027 3026 3025 3023 3021 3020 3019 3017 3015 3013 3011 3009 3006 3003 3001 2999 2998 2997 2995 2993 2990 2988 2987 2985 2983 2982 2981 2979 2976 2975 2973 2973 2971 2969 2968 2967 2965 2964 2962 2960 2958 2956 2954 2952 2949 2947 2945 2943 2940 2938 2936 2934 2933 2931 2930 2928 2927 2925 2923 2922 2920 2918 2916 2915 2913 2912 2910 2909 2908 2906 2905 2904 2903 2902 2901 2900 2899 2898 2897 2897 2896 2895 2894
3029 3027 3026 3024 3023 3022 3020 3018 3017 3015 3014 3012 3009 3007 3005 3003 3001 2998 2995 2993 2992 2991 2988 2987 2985 2984 2982 2980 2978 2977 2976 2974 2972 2971 2969 2968 2967 2966 2964 2963 2961 2959 2958 2956 2954 2952 2949 2947 2945 2943 2940 2938 2935 2933 2932 2930 2928 2927 2926 2924 2923 2921 2919 2918 2916 2914 2913 2911 2909 2908 2907 2905 2904 2903 2902 2901 2900 2899 2898 2897 2896 2895 2894 2894 2893 2893
3026 3024 3023 3022 3020 3019 3017 3015 3013 3012 3010 3008 3006 3003 3001 2999 2997 2994 2992 2990 2988 2987 2985 2983 2981 2980 2979 2978 2976 2974 2972 2971 2970 2968 2967 2966 2964 2963 2961 2959 2958 2957 2955 2953 2951 2949 2948 2945 2943 2941 2938 2935 2933 2931 2929 2928 2926 2925 2923 2922 2920 2919 2917 2915 2913 2912 2910 2909 2907 2906 2905 2903 2902 2901 2900 2899 2898 2897 2896 2895 2894 2893 2893 2893 2892 2892
3023 3022 3020 3018 3017 3016 3014 3012 3009 3007 3006 3004 3002 2999 2997 2994 2993 2990 2988 2986 2985 2983 2982 2979 2978 2976 2976 2975 2973 2971 2969 2968 2967 2966 2965 2963 2962 2960 2958 2956 2955 2954 2952 2950 2949 2947 2945 2943 2940 2938 2936 2933 2931 2929 2927 2925 2924 2923 2921 2919 2918 2916 2915 2913 2911 2910 2908 2907 2905 2904 2903 2902 2900 2899 2898 2897 2896 2895 2894 2893 2893 2892 2891 2892 2892 2890
3021 3019 3017 3015 3014 3012 3010 3008 3005 3003 3002 3000 2998 2996 2993 2991 2989 2987 2985 2983 2981 2980 2978 2976 2975 2973 2973 2972 2970 2968 2967 2965 2964 2963 2962 2960 2959 2957 2955 2953 2952 2951 2950 2948 2946 2944 2942 2940 2938 2935 2933 2930 2928 2926 2925 2923 2922 2920 2918 2917 2915 2914 2912 2911 2909 2908 2906 2905 2903 2902 2901 2900 2899 2898 2896 2895 2894 2893 2893 2892 2891 2890 2889 2890 2889 2888
3018 3016 3013 3012 3010 3008 3006 3004 3002 3000 2998 2997 2995 2993 2990 2988 2986 2984 2982 2980 2978 2976 2975 2973 2971 2970 2970 2969 2968 2966 2963 2962 2960 2960 2958 2957 2956 2954 2953 2951 2949 2948 2947 2945 2943 2942 2940 2938 2935 2932 2930 2927 2925 2923 2922 2921 2919 2918 2916 2915 2913 2912 2910 2908 2907 2905 2904 2903 2901 2900 2899 2898 2897 2896 2895 2894 2893 2892 2891 2890 2889 2888 2888 2888 2887 2886
3014 3012 3010 3008 3006 3004 3003 3001 2999 2997 2995 2993 2991 2989 2987 2984 2982 2980 2979 2977 2975 2973 2971 2970 2968 2966 2965 2965 2965 2964 2961 2958 2957 2956 2956 2954 2953 2952 2950 2948 2947 2945 2944 2943 2941 2939 2937 2935 2933 2930 2927 2924 2922 2921 2919 2918 2917 2915 2914 2912 2911 2909 2908 2906 2905 2903 2902 2901 2900 2898 2897 2896 2895 2894 2893 2892 2891 2890 2889 2888 2887 2886 2886 2884 2884 2883
3011 3008 3006 3004 3002 3001 2999 2997 2995 2993 2991 2989 2987 2985 2983 2981 2979 2977 2975 2973 2972 2970 2968 2966 2965 2963 2962 2961 2960 2960 2959 2956 2954 2952 2952 2951 2950 2949 2948 2946 2944 2943 2942 2940 2939 2937 2935 2933 2930 2927 2924 2922 2919 2918 2917 2915 2914 2913 2911 2910 2908 2907 2906 2904 2903 2902 2900 2899 2898 2897 2895 2894 2893 2892 2891 2890 2889 2888 2887 2886 2885 2884 2883 2882 2881 2881
3007 3005 3003 3000 2998 2997 2995 2994 2992 2989 2987 2985 2983 2981 2979 2978 2976 2974 2972 2970 2969 2967 2965 2963 2962 2961 2960 2958 2957 2956 2955 2954 2951 2949 2948 2948 2947 2946 2945 2943 2941 2940 2939 2938 2937 2935 2933 2931 2928 2925 2922 2919 2917 2915 2914 2913 2912 2910 2909 2908 2906 2905 2904 2903 2901 2900 2899 2898 2896 2895 2894 2893 2892 2890 2889 2888 2887 2886 2885 2884 2883 2883 2882 2880 2879 2878
3004 3002 3000 2998 2995 2993 2992 2990 2989 2987 2984 2982 2979 2978 2976 2974 2973 2971 2969 2968 2966 2964 2963 2961 2959 2958 2957 2956 2954 2953 2952 2951 2949 2947 2945 2944 2943 2943 2942 2940 2939 2938 2937 2936 2934 2933 2931 2929 2926 2923 2920 2917 2915 2913 2912 2911 2909 2908 2907 2906 2904 2903 2902 2901 2900 2898 2897 2896 2895 2893 2892 2891 2890 2889 2888 2887 2886 2884 2883 2883 2882 2881 2879 2878 2878 2877
3001 2999 2998 2996 2993 2990 2988 2987 2985 2983 2981 2978 2976 2974 2973 2971 2969 2968 2966 2965 2963 2961 2960 2959 2957 2956 2955 2953 2952 2951 2949 2948 2946 2944 2943 2942 2941 2940 2939 2938 2936 2935 2934 2933 2932 2930 2929 2927 2924 2921 2918 2915 2913 2911 2910 2909 2908 2906 2905 2904 2903 2902 2900 2899 2898 2897 2896 2894 2893 2892 2891 2889 2888 2887 2886 2885 2884 2883 2882 2881 2880 2879 2878 2877 2876 2875
2998 2996 2994 2993 2990 2988 2985 2983 2982 2980 2978 2975 2973 2971 2969 2968 2966 2965 2963 2962 2960 2958 2957 2956 2955 2953 2952 2951 2950 2948 2947 2946 2944 2942 2940 2939 2939 2938 2937 2936 2934 2933 2932 2931 2930 2928 2927 2925 2922 2919 2916 2913 2911 2909 2908 2907 2905 2904 2903 2902 2901 2900 2898 2898 2897 2895 2894 2893 2892 2890 2889 2888 2887 2885 2884 2883 2882 2881 2880 2879 2878 2877 2876 2875 2874 2873
2995 2993 2992 2990 2988 2985 2983 2981 2979 2977 2975 2973 2970 2968 2966 2965 2963 2962 2960 2959 2958 2956 2954 2953 2952 2951 2950 2949 2948 2946 2945 2944 2943 2940 2938 2937 2937 2936 2935 2933 2932 2931 2930 2929 2928 2927 2925 2923 2921 2918 2914 2912 2909 2908 2906 2905 2904 2903 2901 2900 2899 2898 2897 2896 2895 2894 2893 2891 2890 2889 2888 2886 2885 2884 2883 2881 2880 2879 2878 2877 2876 2875 2874 2873 2872 2871
2993 2991 2989 2987 2985 2982 2980 2978 2977 2974 2973 2971 2969 2966 2964 2963 2961 2959 2958 2957 2955 2954 2953 2952 2950 2949 2948 2947 2946 2944 2943 2942 2940 2938 2937 2935 2934 2934 2933 2932 2930 2928 2928 2927 2926 2924 2923 2921 2919 2916 2913 2910 2908 2906 2904 2903 2902 2901 2899 2898 2898 2896 2895 2894 2893 2892 2891 2890 2888 2887 2886 2884 2883 2882 2881 2879 2878 2877 2876 2875 2874 2873 2872 2871 2870 2869
2991 2988 2987 2984 2982 2980 2977 2975 2974 2972 2970 2968 2966 2964 2962 2960 2959 2958 2956 2955 2954 2952 2951 2949 2948 2946 2945 2944 2944 2943 2941 2939 2938 2936 2935 2933 2933 2932 2930 2929 2928 2926 2925 2925 2924 2923 2921 2919 2917 2914 2911 2908 2906 2904 2903 2902 2900 2899 2898 2897 2896 2895 2894 2893 2892 2891 2889 2888 2887 2885 2884 2883 2881 2880 2879 2878 2876 2875 2874 2873 2872 2871 2870 2869 2868 2867
2988 2985 2983 2981 2978 2976 2974 2972 2970 2968 2967 2965 2963 2961 2959 2958 2956 2955 2954 2953 2951 2950 2948 2947 2945 2944 2943 2943 2942 2940 2939 2937 2936 2934 2933 2931 2930 2929 2928 2927 2926 2924 2923 2923 2922 2921 2919 2918 2915 2913 2909 2907 2904 2903 2901 2900 2898 2898 2896 2895 2894 2893 2892 2891 2890 2889 2888 2886 2885 2884 2882 2881 2880 2878 2877 2876 2875 2873 2872 2871 2870 2869 2868 2867 2865 2864
2984 2981 2979 2977 2975 2973 2971 2968 2967 2965 2964 2963 2961 2960 2958 2956 2954 2952 2951 2949 2948 2947 2946 2944 2943 2942 2941 2940 2939 2938 2937 2935 2933 2932 2931 2929 2928 2927 2926 2925 2923 2922 2921 2920 2920 2919 2917 2916 2913 2911 2908 2905 2903 2901 2900 2898 2897 2896 2895 2894 2893 2892 2891 2890 2888 2887 2886 2885 2883 2882 2881 2879 2878 2877 2875 2874 2873 2872 2870 2869 2868 2867 2865 2864 2863 2862
2980 2978 2976 2974 2972 2970 2968 2966 2964 2963 2962 2960 2958 2957 2956 2954 2952 2950 2948 2947 2946 2945 2943 2942 2940 2939 2938 2938 2937 2936 2935 2933 2931 2930 2929 2928 2927 2925 2924 2923 2922 2920 2919 2918 2918 2917 2915 2913 2911 2909 2906 2904 2902 2900 2898 2897 2896 2894 2893 2892 2891 2890 2889 2888 2887 2886 2884 2883 2882 2880 2879 2878 2877 2875 2874 2873 2871 2870 2868 2867 2866 2864 2863 2862 2861 2860
2977 2975 2973 2971 2969 2968 2966 2963 2962 2960 2958 2957 2955 2954 2952 2951 2950 2948 2947 2946 2944 2943 2942 2940 2938 2937 2936 2936 2935 2934 2933 2932 2930 2928 2927 2926 2925 2924 2923 2921 2920 2918 2917 2916 2915 2915 2914 2912 2909 2907 2905 2902 2900 2899 2897 2896 2894 2893 2892 2891 2890 2889 2888 2887 2885 2884 2883 2882 2880 2879 2878 2876 2875 2873 2872 2871 2869 2868 2866 2865 2863 2862 2861 2860 2858 2857
2974 2973 2970 2968 2966 2965 2963 2961 2959 2958 2956 2954 2953 2951 2950 2948 2947 2945 2944 2943 2942 2941 2939 2938 2936 2935 2934 2933 2933 2932 2931 2929 2928 2927 2926 2925 2923 2922 2921 2920 2918 2916 2914 2913 2913 2912 2912 2910 2908 2905 2903 2901 2899 2897 2896 2894 2893 2892 2891 2890 2889 2888 2886 2885 2884 2883 2881 2880 2879 2878 2876 2875 2873 2872 2871 2869 2868 2866 2865 2863 2862 2860 2859 2858 2856 2855
2971 2969 2968 2966 2964 2962 2960 2958 2957 2955 2953 2952 2950 2948 2947 2945 2944 2942 2940 2939 2939 2938 2937 2936 2934 2933 2932 2931 2931 2930 2929 2927 2926 2924 2924 2923 2922 2921 2919 2918 2916 2914 2913 2911 2909 2908 2909 2908 2907 2904 2901 2899 2898 2896 2894 2893 2892 2891 2890 2889 2888 2886 2885 2884 2883 2881 2880 2879 2877 2876 2875 2873 2872 2871 2869 2868 2866 2864 2863 2861 2860 2858 2857 2855 2854 2853
2968 2967 2965 2963 2961 2959 2958 2956 2954 2952 2951 2949 2947 2945 2944 2942 2941 2939 2938 2937 2936 2936 2935 2934 2933 2932 2930 2929 2929 2928 2927 2925 2923 2922 2922 2921 2920 2919 2918 2917 2915 2913 2911 2909 2907 2905 2904 2904 2904 2903 2900 2898 2896 2894 2893 2891 2890 2889 2888 2888 2886 2885 2884 2883 2881 2880 2879 2877 2876 2875 2873 2872 2871 2869 2868 2866 2865 2863 2862 2860 2858 2856 2855 2853 2852 2851
2965 2963 2962 2960 2958 2957 2955 2953 2951 2949 2948 2946 2944 2943 2941 2939 2938 2936 2935 2934 2933 2933 2932 2932 2931 2929 2928 2928 2927 2926 2925 2923 2921 2920 2920 2919 2918 2917 2916 2915 2913 2911 2910 2908 2906 2904 2902 2901 2900 2900 2899 2897 2895 2893 2892 2890 2889 2888 2887 2886 2885 2884 2882 2881 2880 2879 2878 2876 2875 2873 2872 2871 2869 2868 2866 2865 2863 2862 2860 2858 2857 2855 2853 2852 2850 2849
2962 2961 2959 2957 2955 2953 2952 2950 2948 2946 2944 2943 2941 2939 2938 2936 2935 2934 2933 2932 2931 2930 2930 2929 2928 2927 2927 2926 2925 2924 2923 2921 2920 2919 2918 2918 2917 2915 2914 2913 2911 2910 2908 2907 2905 2903 2901 2899 2898 2897 2897 2896 2894 2892 2890 2889 2888 2886 2885 2884 2883 2882 2881 2880 2878 2877 2876 2875 2873 2872 2871 2869 2868 2867 2865 2864 2862 2860 2859 2857 2855 2853 2852 2850 2849 2848
2959 2958 2956 2954 2952 2950 2948 2947 2945 2943 2941 2939 2938 2936 2935 2933 2932 2931 2930 2929 2928 2928 2927 2927 2926 2925 2924 2924 2923 2922 2921 2919 2918 2917 2917 2916 2915 2914 2913 2911 2909 2908 2906 2905 2903 2901 2899 2898 2896 2895 2894 2894 2893 2891 2889 2888 2886 2885 2884 2883 2882 2881 2879 2878 2877 2876 2875 2873 2872 2871 2869 2868 2867 2865 2864 2863 2861 2859 2857 2856 2854 2852 2850 2849 2848 2846
2956 2954 2953 2951 2949 2947 2945 2943 2942 2940 2938 2936 2935 2933 2932 2931 2929 2928 2928 2927 2926 2925 2924 2924 2923 2923 2923 2922 2921 2920 2919 2918 2917 2916 2915 2914 2913 2912 2911 2909 2908 2906 2904 2903 2901 2899 2898 2896 2895 2894 2893 2892 2891 2890 2888 2887 2885 2884 2883 2882 2880 2879 2878 2877 2876 2874 2873 2872 2871 2869 2868 2867 2865 2864 2863 2861 2859 2858 2856 2854 2853 2851 2850 2848 2847 2845
2953 2951 2950 2948 2946 2944 2942 2941 2939 2937 2935 2934 2932 2930 2929 2928 2927 2926 2925 2924 2923 2923 2922 2921 2921 2921 2920 2920 2919 2918 2917 2916 2915 2914 2913 2913 2912 2911 2909 2908 2906 2905 2903 2901 2899 2898 2896 2895 2893 2893 2891 2890 2889 2888 2887 2886 2885 2883 2882 2881 2879 2878 2877 2875 2874 2873 2872 2871 2869 2868 2867 2865 2864 2863 2861 2859 2858 2856 2854 2853 2851 2850 2849 2848 2846 2845
2950 2948 2947 2945 2943 2941 2939 2938 2936 2934 2933 2931 2929 2928 2927 2925 2924 2923 2923 2922 2921 2920 2919 2919 2918 2918 2918 2917 2917 2917 2916 2915 2914 2913 2912 2911 2910 2909 2908 2906 2905 2903 2901 2899 2898 2896 2894 2893 2892 2891 2890 2889 2888 2887 2886 2885 2884 2883 2881 2880 2878 2877 2876 2874 2873 2872 2871 2869 2868 2867 2865 2864 2862 2861 2859 2858 2856 2855 2853 2852 2851 2849 2848 2847 2846 2845
2947 2946 2944 2942 2940 2938 2937 2935 2933 2932 2930 2929 2927 2926 2924 2923 2922 2921 2920 2919 2918 2918 2918 2917 2916 2916 2915 2915 2915 2914 2914 2913 2913 2912 2911 2910 2909 2908 2906 2905 2903 2902 2900 2898 2896 2894 2893 2892 2890 2889 2888 2888 2887 2885 2884 2883 2882 2881 2880 2879 2878 2876 2875 2873 2872 2871 2870 2868 2867 2866 2864 2863 2861 2859 2858 2856 2855 2853 2852 2851 2850 2849 2848 2847 2846 2845
2945 2943 2941 2939 2938 2936 2934 2933 2931 2929 2928 2926 2925 2923 2922 2921 2920 2919 2918 2917 2917 2916 2916 2915 2914 2914 2914 2913 2913 2913 2912 2912 2911 2910 2909 2908 2907 2906 2904 2903 2901 2900 2898 2897 2895 2893 2892 2891 2889 2888 2887 2886 2885 2884 2883 2882 2881 2880 2879 2878 2877 2876 2874 2873 2872 2870 2869 2868 2866 2865 2863 2862 2860 2858 2857 2855 2854 2853 2851 2850 2849 2848 2848 2847 2846 2845
2942 2940 2938 2937 2935 2933 2932 2930 2928 2927 2925 2924 2923 2921 2920 2919 2918 2917 2916 2915 2915 2915 2914 2914 2913 2913 2913 2912 2912 2911 2911 2910 2910 2909 2908 2907 2906 2904 2903 2901 2900 2898 2897 2895 2894 2893 2891 2890 2888 2887 2886 2885 2884 2883 2882 2881 2880 2879 2878 2877 2877 2875 2874 2873 2871 2870 2868 2867 2865 2863 2862 2861 2859 2858 2856 2855 2853 2852 2851 2850 2849 2848 2847 2846 2845 2845
2939 2938 2936 2934 2933 2931 2929 2928 2926 2925 2923 2922 2921 2920 2919 2918 2917 2916 2915 2914 2914 2913 2913 2913 2912 2912 2912 2911 2911 2910 2909 2909 2908 2907 2906 2905 2904 2903 2901 2899 2898 2896 2895 2894 2893 2892 2890 2889 2888 2886 2885 2884 2883 2882 2881 2880 2879 2878 2877 2876 2875 2875 2873 2872 2871 2869 2868 2866 2864 2863 2861 2860 2858 2857 2856 2854 2853 2851 2850 2849 2848 2848 2847 2846 2845 2844
2936 2935 2933 2932 2930 2929 2927 2926 2924 2923 2922 2920 2919 2918 2918 2917 2916 2915 2914 2913 2913 2913 2912 2912 2912 2912 2911 2910 2910 2909 2908 2907 2906 2905 2904 2903 2902 2901 2899 2898 2896 2895 2893 2892 2891 2891 2890 2888 2887 2886 2884 2883 2882 2881 2881 2880 2879 2878 2877 2876 2875 2874 2873 2872 2870 2869 2867 2865 2863 2862 2860 2859 2858 2857 2856 2854 2853 2851 2850 2849 2848 2848 2847 2846 2845 2844
2933 2932 2930 2929 2928 2927 2925 2924 2923 2921 2920 2919 2918 2917 2916 2915 2914 2913 2913 2913 2912 2912 2912 2912 2912 2911 2910 2909 2909 2908 2907 2906 2905 2904 2903 2902 2901 2899 2898 2896 2895 2893 2892 2891 2890 2889 2889 2888 2887 2885 2884 2883 2882 2881 2880 2879 2878 2877 2876 2875 2874 2873 2872 2871 2870 2868 2867 2865 2863 2862 2860 2859 2858 2857 2855 2854 2853 2851 2850 2849 2849 2848 2847 2847 2846 2845
2930 2929 2928 2927 2926 2924 2923 2922 2921 2920 2918 2918 2916 2915 2915 2914 2913 2913 2912 2912 2912 2912 2912 2911 2911 2910 2909 2908 2908 2907 2906 2904 2903 2902 2901 2900 2899 2898 2896 2895 2893 2892 2891 2890 2889 2888 2888 2887 2886 2885 2883 2882 2881 2880 2879 2879 2878 2877 2876 2875 2874 2873 2871 2870 2868 2867 2866 2864 2863 2861 2860 2859 2858 2857 2855 2854 2853 2852 2851 2850 2849 2849 2848 2847 2846 2846
2928 2927 2926 2925 2923 2923 2921 2920 2919 2918 2917 2916 2915 2914 2913 2913 2912 2912 2912 2912 2912 2911 2911 2910 2910 2909 2908 2908 2907 2906 2905 2904 2902 2901 2899 2898 2897 2896 2894 2893 2892 2891 2890 2889 2888 2888 2887 2886 2886 2884 2883 2882 2881 2880 2879 2878 2878 2877 2876 2875 2874 2873 2871 2869 2868 2866 2865 2863 2862 2861 2860 2859 2858 2857 2856 2854 2853 2853 2852 2851 2850 2849 2848 2848 2847 2846
2926 2925 2924 2923 2922 2921 2920 2919 2918 2917 2916 2915 2914 2913 2913 2912 2912 2912 2912 2911 2911 2911 2910 2910 2909 2908 2908 2907 2906 2904 2903 2902 2901 2899 2898 2897 2895 2894 2893 2892 2891 2890 2889 2888 2888 2887 2887 2886 2885 2884 2883 2882 2881 2880 2879 2878 2878 2877 2876 2875 2874 2873 2871 2870 2868 2866 2865 2863 2862 2861 2860 2859 2858 2857 2856 2855 2854 2853 2853 2852 2851 2850 2849 2848 2847 2846
2924 2923 2922 2921 2920 2919 2918 2918 2917 2916 2915 2914 2913 2913 2912 2912 2911 2911 2911 2911 2911 2910 2910 2909 2908 2908 2907 2905 2904 2903 2901 2900 2899 2898 2897 2896 2894 2893 2892 2891 2890 2889 2888 2888 2887 2886 2886 2885 2884 2883 2882 2882 2881 2880 2879 2878 2877 2877 2876 2875 2874 2873 2872 2870 2868 2867 2865 2863 2862 2861 2860 2859 2858 2858 2857 2856 2855 2854 2853 2852 2851 2850 2849 2848 2847 2846
2922 2921 2921 2920 2919 2918 2917 2917 2916 2915 2914 2913 2913 2912 2912 2912 2911 2911 2911 2911 2910 2910 2909 2908 2907 2906 2905 2903 2902 2901 2899 2898 2897 2896 2895 2894 2893 2892 2891 2891 2890 2889 2888 2887 2886 2886 2885 2885 2884 2883 2882 2881 2881 2880 2879 2878 2878 2877 2876 2875 2874 2873 2872 2870 2868 2867 2865 2864 2863 2862 2861 2860 2859 2858 2858 2857 2856 2855 2854 2853 2852 2850 2849 2848 2847 2846
2920 2920 2919 2918 2918 2917 2916 2916 2915 2914 2913 2913 2912 2912 2912 2912 2912 2911 2911 2911 2910 2909 2908 2907 2906 2905 2903 2902 2900 2899 2898 2896 2895 2894 2893 2893 2892 2891 2891 2890 2890 2889 2888 2887 2886 2885 2884 2884 2883 2883 2882 2881 2881 2880 2879 2879 2878 2877 2876 2875 2874 2873 2872 2870 2868 2867 2866 2864 2863 2863 2862 2861 2860 2859 2858 2858 2857 2856 2854 2853 2852 2850 2849 2848 2847 2846
2919 2918 2918 2917 2917 2916 2915 2915 2914 2913 2913 2913 2912 2912 2912 2911 2911 2911 2911 2910 2909 2908 2907 2906 2905 2903 2902 2900 2899 2898 2896 2895 2894 2893 2892 2892 2891 2890 2890 2890 2889 2889 2888 2887 2886 2885 2884 2883 2883 2883 2882 2882 2881 2880 2880 2879 2878 2878 2876 2875 2874 2873 2872 2870 2868 2867 2866 2865 2864 2863 2862 2862 2861 2860 2859 2858 2857 2856 2854 2853 2852 2850 2849 2848 2847 2846
2917 2917 2917 2916 2916 2915 2915 2914 2913 2913 2913 2912 2912 2912 2911 2911 2911 2911 2910 2909 2908 2907 2906 2905 2903 2902 2901 2899 2898 2896 2895 2894 2893 2892 2892 2891 2890 2890 2889 2889 2889 2888 2888 2887 2886 2885 2884 2883 2883 2883 2883 2882 2881 2881 2880 2880 2879 2878 2877 2876 2874 2873 2872 2870 2869 2868 2867 2866 2865 2864 2863 2862 2861 2860 2859 2858 2857 2856 2854 2853 2852 2851 2849 2848 2847 2846